TimeEDT,TemperatureF,Dew PointF,Humidity,Sea Level PressureIn,VisibilityMPH,Wind Direction,Wind SpeedMPH,Gust SpeedMPH,PrecipitationIn,Events,Conditions,WindDirDegrees,DateUTC
12:54 AM,45.0,28.9,53,30.08,10.0,West,9.2,-,N/A,,Clear,270,2013-10-28 04:54:00
1:54 AM,41.0,28.9,62,30.09,10.0,SW,9.2,-,N/A,,Clear,230,2013-10-28 05:54:00
2:54 AM,44.1,30.0,58,30.09,10.0,West,9.2,-,N/A,,Clear,270,2013-10-28 06:54:00
3:54 AM,45.0,30.0,56,30.09,10.0,West,4.6,-,N/A,,Clear,270,2013-10-28 07:54:00
4:54 AM,41.0,30.0,65,30.11,10.0,WSW,8.1,-,N/A,,Clear,250,2013-10-28 08:54:00
5:54 AM,43.0,30.0,60,30.10,10.0,West,8.1,-,N/A,,Clear,280,2013-10-28 09:54:00
6:54 AM,39.9,30.9,70,30.12,10.0,SW,9.2,-,N/A,,Partly Cloudy,220,2013-10-28 10:54:00
7:54 AM,41.0,30.9,67,30.13,10.0,SW,10.4,-,N/A,,Scattered Clouds,220,2013-10-28 11:54:00
8:54 AM,44.1,30.9,60,30.14,10.0,SW,10.4,-,N/A,,Partly Cloudy,220,2013-10-28 12:54:00
9:54 AM,50.0,28.9,44,30.14,10.0,WSW,15.0,-,N/A,,Partly Cloudy,240,2013-10-28 13:54:00
10:54 AM,53.1,28.0,38,30.14,10.0,WSW,18.4,-,N/A,,Partly Cloudy,250,2013-10-28 14:54:00
11:54 AM,57.0,30.0,36,30.12,10.0,West,19.6,25.3,N/A,,Partly Cloudy,260,2013-10-28 15:54:00
12:54 PM,57.9,30.0,35,30.09,10.0,WSW,20.7,27.6,N/A,,Scattered Clouds,240,2013-10-28 16:54:00
1:54 PM,60.1,28.9,31,30.09,10.0,West,18.4,27.6,N/A,,Scattered Clouds,270,2013-10-28 17:54:00
2:54 PM,57.9,30.9,36,30.11,10.0,West,20.7,28.8,N/A,,Mostly Cloudy,280,2013-10-28 18:54:00
3:54 PM,57.0,28.9,34,30.13,10.0,WNW,20.7,26.5,N/A,,Mostly Cloudy,290,2013-10-28 19:54:00
4:54 PM,55.9,28.0,34,30.16,10.0,West,11.5,21.9,N/A,,Scattered Clouds,280,2013-10-28 20:54:00
5:54 PM,55.0,28.9,37,30.19,10.0,North,13.8,19.6,N/A,,Mostly Cloudy,350,2013-10-28 21:54:00
6:54 PM,50.0,30.9,48,30.25,10.0,North,16.1,-,N/A,,Scattered Clouds,350,2013-10-28 22:54:00
7:54 PM,48.0,28.9,48,30.28,10.0,NNW,11.5,-,N/A,,Partly Cloudy,340,2013-10-28 23:54:00
8:54 PM,46.9,28.0,48,30.30,10.0,NNW,6.9,-,N/A,,Partly Cloudy,340,2013-10-29 00:54:00
9:54 PM,45.0,21.9,40,30.33,10.0,NNW,11.5,20.7,N/A,,Partly Cloudy,340,2013-10-29 01:54:00
10:54 PM,43.0,19.9,40,30.35,10.0,North,9.2,18.4,N/A,,Partly Cloudy,350,2013-10-29 02:54:00
11:54 PM,42.1,21.0,43,30.36,10.0,NNW,8.1,-,N/A,,Partly Cloudy,330,2013-10-29 03:54:00